DW6610 Weather Reports


time (UTC)temp
F
wind
direction
speed
knots
gust
knots
rain 1hr
in
rain 24hr
in
rain mn
in
humidity
%
barometer
mb
20260509134606 71 138 0.0 5.2 0.00 0.00 0.00 79 1011.7
20260509134051 71 80 0.9 5.2 0.00 0.00 0.00 75 1011.7
20260509133551 71 153 0.9 3.5 0.00 0.00 0.00 77 1011.6
20260509133058 71 94 0.9 2.6 0.00 0.00 0.00 78 1011.7
20260509132552 70 131 0.9 3.5 0.00 0.00 0.00 80 1011.6
20260509132054 69 0 0.9 3.5 0.00 0.00 0.00 80 1011.6
20260509131616 69 0 0.9 2.6 0.00 0.00 0.00 80 1011.6
20260509131051 69 98 0.0 1.7 0.00 0.00 0.00 82 1011.5
20260509130550 68 0 0.0 1.7 0.00 0.00 0.00 85 1011.5
20260509125551 66 75 0.0 0.9 0.00 0.00 0.00 87 1011.5
20260509125055 65 73 0.0 1.7 0.00 0.00 0.00 89 1011.5
20260509124553 63 73 0.0 1.7 0.00 0.00 0.00 88 1011.4
20260509124050 63 73 0.9 1.7 0.00 0.00 0.00 90 1011.4
20260509123552 61 0 0.0 0.9 0.00 0.00 0.00 92 1011.4
20260509123102 60 84 0.0 0.9 0.00 0.00 0.00 94 1011.4
20260509122552 59 84 0.0 1.7 0.00 0.00 0.00 95 1011.3
20260509122051 58 0 0.0 2.6 0.00 0.00 0.00 95 1011.2
20260509121552 58 0 0.0 3.5 0.00 0.00 0.00 95 1011.2
20260509121052 58 72 0.0 3.5 0.00 0.00 0.00 95 1011.2
20260509120554 58 70 0.9 2.6 0.00 0.00 0.00 95 1011.2
20260509120058 57 0 0.0 2.6 0.00 0.00 0.00 95 1011.2
20260509115551 57 77 0.9 2.6 0.00 0.00 0.00 95 1011.2
20260509115051 57 77 0.0 4.3 0.00 0.00 0.00 95 1011.2
20260509114608 57 43 0.9 4.3 0.00 0.00 0.00 95 1011.1
20260509114051 57 71 0.9 5.2 0.00 0.00 0.00 95 1011.1
20260509113549 57 73 1.7 6.1 0.00 0.00 0.00 95 1011.0
20260509113055 57 307 0.9 6.1 0.00 0.00 0.00 96 1010.9
20260509112550 57 110 1.7 5.2 0.00 0.00 0.00 96 1010.9
20260509112050 56 20 0.0 4.3 0.00 0.00 0.00 96 1010.8
20260509111555 56 55 0.9 3.5 0.00 0.00 0.00 96 1010.8
20260509111050 56 86 0.9 2.6 0.00 0.00 0.00 96 1010.6
20260509110552 56 45 0.9 2.6 0.00 0.00 0.00 96 1010.6
20260509110104 56 47 0.0 1.7 0.00 0.00 0.00 96 1010.5
20260509105551 56 60 0.0 1.7 0.00 0.00 0.00 96 1010.3
20260509105053 56 63 0.0 1.7 0.00 0.00 0.00 96 1010.3
20260509104558 56 66 0.0 1.7 0.00 0.00 0.00 96 1010.4
20260509104051 56 69 0.0 1.7 0.00 0.00 0.00 96 1010.3
20260509103552 56 68 0.0 1.7 0.00 0.00 0.00 96 1010.3
20260509103054 56 54 0.9 2.6 0.00 0.00 0.00 96 1010.3
20260509102551 56 52 0.9 2.6 0.00 0.00 0.00 96 1010.3
20260509102052 56 40 0.0 1.7 0.00 0.00 0.00 96 1010.5
20260509101554 56 82 0.0 2.6 0.00 0.00 0.00 96 1010.4
20260509101055 56 0 0.0 2.6 0.00 0.00 0.00 97 1010.4
20260509100552 55 45 0.9 2.6 0.00 0.00 0.00 97 1010.5
20260509100054 55 84 0.9 2.6 0.00 0.00 0.00 97 1010.6
20260509095555 55 37 0.0 1.7 0.00 0.00 0.00 97 1010.6
20260509095052 55 91 0.0 1.7 0.00 0.00 0.00 97 1010.7
20260509094610 55 0 0.0 1.7 0.00 0.00 0.00 96 1010.9
20260509094051 55 72 0.0 0.9 0.00 0.00 0.00 96 1010.8
20260509093551 55 83 0.0 0.9 0.00 0.00 0.00 96 1010.9
20260509093053 54 0 0.0 0.0 0.00 0.00 0.00 96 1010.8
20260509092555 55 0 0.0 0.0 0.00 0.00 0.00 96 1010.9
20260509092051 55 0 0.0 0.0 0.00 0.00 0.00 95 1010.6
20260509091556 55 0 0.0 0.0 0.00 0.00 0.00 95 1010.6
20260509091054 55 0 0.0 0.0 0.00 0.00 0.00 95 1010.5
20260509090552 55 0 0.0 0.0 0.00 0.00 0.00 94 1010.4
20260509085552 55 0 0.0 0.0 0.00 0.00 0.00 94 1010.5
20260509085050 56 0 0.0 0.0 0.00 0.00 0.00 94 1010.5
20260509084559 56 0 0.0 0.0 0.00 0.00 0.00 94 1010.7
20260509084050 56 0 0.0 0.0 0.00 0.00 0.00 93 1010.6
20260509083550 56 0 0.0 0.0 0.00 0.00 0.00 93 1010.6
20260509083054 56 0 0.0 0.0 0.00 0.00 0.00 92 1010.6
20260509082550 57 0 0.0 0.9 0.00 0.00 0.00 92 1010.5
20260509082051 57 0 0.0 0.9 0.00 0.00 0.00 92 1010.5
20260509081555 57 0 0.0 0.9 0.00 0.00 0.00 91 1010.5
20260509081051 57 0 0.0 1.7 0.00 0.00 0.00 91 1010.3
20260509080552 57 0 0.0 2.6 0.00 0.00 0.00 91 1010.3
20260509080052 58 0 0.0 2.6 0.00 0.00 0.00 91 1010.3
20260509075550 57 70 0.9 2.6 0.00 0.00 0.00 91 1010.1
20260509075050 58 44 0.9 2.6 0.00 0.00 0.00 91 1010.3
20260509074552 58 49 0.0 3.5 0.00 0.00 0.00 91 1010.3
20260509074052 58 56 0.9 3.5 0.00 0.00 0.00 90 1010.3
20260509073552 58 50 0.0 2.6 0.00 0.00 0.00 90 1010.3
20260509073050 58 15 0.0 1.7 0.00 0.00 0.00 90 1010.2
20260509072548 58 49 0.0 1.7 0.00 0.00 0.00 90 1010.0
20260509072051 58 0 0.0 2.6 0.00 0.00 0.00 90 1009.9
20260509071616 58 75 0.0 2.6 0.00 0.00 0.00 90 1010.0
20260509071052 58 0 0.0 2.6 0.00 0.00 0.00 90 1010.3
20260509070552 58 0 0.0 0.9 0.00 0.00 0.00 90 1010.3
20260509070106 58 0 0.0 0.9 0.00 0.00 0.00 89 1010.4
20260509065551 58 0 0.0 0.9 0.00 0.00 0.00 89 1010.4
20260509065051 58 0 0.0 0.9 0.00 0.00 0.00 89 1010.6
20260509064556 58 0 0.0 0.9 0.00 0.00 0.00 88 1010.7
20260509064050 59 0 0.0 0.9 0.00 0.00 0.00 88 1010.7
20260509063551 59 0 0.0 2.6 0.00 0.00 0.00 88 1010.3
20260509063055 59 34 0.0 2.6 0.00 0.00 0.00 88 1010.5
20260509062551 59 41 0.9 2.6 0.00 0.00 0.00 87 1010.7
20260509062051 59 51 0.9 4.3 0.00 0.00 0.00 87 1010.9
20260509061555 59 325 0.9 4.3 0.00 0.00 0.00 87 1011.0
20260509061048 59 32 0.9 3.5 0.00 0.00 0.00 87 1010.6
20260509060549 59 17 0.9 3.5 0.00 0.00 0.00 87 1011.1
20260509055550 59 66 0.9 4.3 0.00 0.00 0.00 87 1010.9
20260509055053 59 27 1.7 4.3 0.00 0.00 0.00 86 1010.9
20260509054613 59 50 0.9 4.3 0.00 0.00 0.00 86 1011.1
20260509054050 59 93 0.9 6.1 0.00 0.00 0.00 86 1011.2
20260509053549 60 71 1.7 6.1 0.00 0.00 0.00 85 1011.1
20260509053144 60 30 1.7 3.5 0.00 0.00 0.00 85 1011.3
20260509052552 60 11 0.0 3.5 0.00 0.00 0.00 85 1011.7
20260509052052 60 321 1.7 3.5 0.00 0.00 0.00 85 1011.5
20260509051554 60 72 0.9 2.6 0.00 0.00 0.00 85 1011.8
20260509051049 60 89 0.9 3.5 0.00 0.00 0.00 85 1011.7
20260509050550 60 65 0.9 3.5 0.00 0.00 0.00 84 1011.7
20260509050059 60 38 0.9 4.3 0.00 0.00 0.00 84 1011.6
20260509045550 60 71 0.9 4.3 0.00 0.00 0.00 84 1011.8
20260509045050 60 77 0.9 3.5 0.00 0.00 0.00 84 1011.9
20260509044557 60 1 0.9 4.3 0.00 0.00 0.00 84 1011.9
20260509044050 60 72 1.7 4.3 0.00 0.00 0.00 84 1012.0
20260509043549 60 48 0.9 2.6 0.00 0.00 0.00 84 1012.0
20260509043057 60 44 0.0 2.6 0.00 0.00 0.00 83 1012.1
20260509042549 60 71 0.0 3.5 0.00 0.00 0.00 83 1012.1
20260509042050 60 29 0.0 4.3 0.00 0.00 0.00 82 1012.2
20260509041558 60 47 0.0 4.3 0.00 0.00 0.00 82 1012.1
20260509041050 61 76 0.9 4.3 0.00 0.00 0.00 82 1012.1
20260509040550 61 55 0.9 4.3 0.00 0.00 0.00 81 1012.0
20260509040109 61 43 0.9 2.6 0.00 0.00 0.00 81 1012.0
20260509035550 61 41 0.0 1.7 0.00 0.00 0.00 81 1011.8
20260509035054 61 86 0.0 1.7 0.00 0.00 0.00 80 1011.9
20260509034614 61 67 0.0 1.7 0.00 0.00 0.00 80 1012.0
20260509034050 61 0 0.0 2.6 0.00 0.00 0.00 79 1011.8
20260509033550 61 82 0.0 2.6 0.00 0.00 0.00 79 1011.6
20260509033052 62 0 0.9 2.6 0.00 0.00 0.00 78 1011.5
20260509032550 62 44 0.0 1.7 0.00 0.00 0.00 78 1011.5
20260509032050 62 68 0.0 2.6 0.00 0.00 0.00 77 1011.6
20260509031554 62 0 0.0 4.3 0.00 0.00 0.00 77 1011.6
20260509031050 63 53 0.9 4.3 0.00 0.00 0.00 76 1011.3
20260509030552 63 41 0.0 3.5 0.00 0.00 0.00 76 1011.5
20260509025550 63 72 0.9 2.6 0.00 0.00 0.00 75 1011.6
20260509025051 63 313 0.9 2.6 0.00 0.00 0.00 75 1011.7
20260509024554 63 65 0.0 1.7 0.00 0.00 0.00 74 1011.6
20260509024051 63 49 0.0 2.6 0.00 0.00 0.00 74 1011.7
20260509023554 64 53 0.9 2.6 0.00 0.00 0.00 73 1011.8
20260509023055 64 55 0.0 3.5 0.00 0.00 0.00 72 1011.8
20260509022551 64 70 0.9 3.5 0.00 0.00 0.00 72 1011.7
20260509022048 64 53 0.0 3.5 0.00 0.00 0.00 71 1011.8
20260509021553 64 53 0.9 5.2 0.00 0.00 0.00 71 1011.8
20260509021051 64 28 0.9 5.2 0.00 0.00 0.00 70 1011.5
20260509020551 64 55 0.9 2.6 0.00 0.00 0.00 70 1011.5
20260509020057 64 53 0.9 2.6 0.00 0.00 0.00 69 1011.3
20260509015552 65 46 0.9 2.6 0.00 0.00 0.00 69 1011.3
20260509015051 65 63 0.0 2.6 0.00 0.00 0.00 69 1011.2
20260509014553 65 60 0.9 2.6 0.00 0.00 0.00 68 1011.2
20260509014051 65 78 0.0 2.6 0.00 0.00 0.00 68 1011.1
20260509013551 66 58 0.0 2.6 0.00 0.00 0.00 67 1011.3
20260509013109 66 51 0.9 2.6 0.00 0.00 0.00 67 1011.2
20260509012548 66 63 0.9 2.6 0.00 0.00 0.00 66 1011.4
20260509012051 66 60 0.9 2.6 0.00 0.00 0.00 65 1011.3
20260509011603 67 82 0.0 2.6 0.00 0.00 0.00 64 1011.4
20260509011050 67 75 0.0 2.6 0.00 0.00 0.00 64 1011.4
20260509010552 67 51 0.9 2.6 0.00 0.00 0.00 63 1011.3
20260509010051 68 63 0.0 1.7 0.00 0.00 0.00 62 1011.3
20260509005553 68 74 0.0 1.7 0.00 0.00 0.00 61 1011.3
20260509005051 69 0 0.0 1.7 0.00 0.00 0.00 60 1011.2
20260509004602 69 0 0.0 1.7 0.00 0.00 0.00 59 1011.2
20260509004052 70 0 0.0 1.7 0.00 0.00 0.00 58 1011.2
20260509003555 70 51 0.0 1.7 0.00 0.00 0.00 57 1011.2
20260509003113 71 76 0.0 3.5 0.00 0.00 0.00 56 1011.3
20260509002551 71 79 0.0 6.1 0.00 0.00 0.00 55 1011.1
20260509002051 72 15 1.7 6.1 0.00 0.00 0.00 54 1011.1
20260509001602 72 27 0.9 4.3 0.00 0.00 0.00 53 1011.0
20260509001052 73 11 1.7 4.3 0.00 0.00 0.00 51 1011.1
20260509000551 74 93 0.9 7.8 0.00 0.00 0.00 51 1011.1
20260509000111 74 344 2.6 7.8 0.00 0.00 0.00 49 1011.1
20260508235552 75 100 1.7 4.3 0.00 0.00 0.00 50 1011.0
20260508235052 75 309 1.7 5.2 0.00 0.00 0.00 49 1011.1
20260508234554 76 60 1.7 5.2 0.00 0.00 0.00 48 1011.1
20260508234053 76 52 1.7 5.2 0.00 0.00 0.00 48 1011.1
20260508233549 76 79 2.6 4.3 0.00 0.00 0.00 48 1011.1
20260508233054 76 46 1.7 5.2 0.00 0.00 0.00 47 1011.1
20260508232550 76 35 2.6 5.2 0.00 0.00 0.00 46 1011.1
20260508232049 77 39 2.6 7.8 0.00 0.00 0.00 46 1011.2
20260508231559 77 53 2.6 7.8 0.00 0.00 0.00 46 1011.2
20260508231050 77 64 2.6 6.1 0.00 0.00 0.00 46 1011.1
20260508230549 77 73 2.6 6.1 0.00 0.00 0.00 46 1011.2
20260508230058 77 60 2.6 6.1 0.00 0.00 0.00 47 1011.3
20260508225549 78 67 1.7 7.0 0.00 0.00 0.00 47 1011.3
20260508225052 78 49 1.7 7.8 0.00 0.00 0.00 46 1011.4
20260508224604 78 22 2.6 7.8 0.00 0.00 0.00 45 1011.5
20260508224052 78 30 1.7 7.0 0.00 0.00 0.00 45 1011.4
20260508223550 78 346 2.6 7.0 0.00 0.00 0.00 44 1011.5
20260508223055 79 308 1.7 4.3 0.00 0.00 0.00 44 1011.5
20260508222549 79 93 0.9 4.3 0.00 0.00 0.00 44 1011.4
20260508222052 78 71 1.7 5.2 0.00 0.00 0.00 44 1011.6
20260508221555 78 77 1.7 5.2 0.00 0.00 0.00 44 1011.5
20260508221050 79 101 1.7 5.2 0.00 0.00 0.00 45 1011.6
20260508220549 78 75 1.7 8.7 0.00 0.00 0.00 43 1011.6
20260508220055 78 310 1.7 8.7 0.00 0.00 0.00 44 1011.6
20260508215549 78 4 3.5 8.7 0.00 0.00 0.00 45 1011.6
20260508215053 78 32 3.5 7.0 0.00 0.00 0.00 46 1011.7
20260508214555 78 70 1.7 6.1 0.00 0.00 0.00 47 1011.7
20260508214050 78 53 1.7 6.1 0.00 0.00 0.00 46 1011.6
20260508213550 78 84 2.6 7.0 0.00 0.00 0.00 46 1011.6
20260508213055 78 86 3.5 7.0 0.00 0.00 0.00 44 1011.7
20260508212551 78 74 2.6 5.2 0.00 0.00 0.00 44 1011.8
20260508212050 78 71 0.9 6.1 0.00 0.00 0.00 47 1011.8
20260508211552 78 68 2.6 6.1 0.00 0.00 0.00 44 1011.8
20260508211053 78 92 2.6 6.1 0.00 0.00 0.00 43 1012.0
20260508210550 78 300 1.7 7.8 0.00 0.00 0.00 43 1012.0
20260508210055 78 89 3.5 7.8 0.00 0.00 0.00 44 1011.9
20260508205549 78 153 2.6 7.8 0.00 0.00 0.00 45 1011.8
20260508205050 78 52 1.7 6.1 0.00 0.00 0.00 45 1011.9
20260508204552 78 93 2.6 8.7 0.00 0.00 0.00 46 1011.9
20260508204050 78 332 1.7 8.7 0.00 0.00 0.00 46 1012.1
20260508203549 78 287 2.6 5.2 0.00 0.00 0.00 45 1012.2
20260508203054 79 48 2.6 6.1 0.00 0.00 0.00 44 1012.3
20260508202551 79 333 1.7 6.1 0.00 0.00 0.00 43 1012.4
20260508202049 78 87 2.6 6.1 0.00 0.00 0.00 43 1012.5
20260508201602 78 262 1.7 5.2 0.00 0.00 0.00 45 1012.5
20260508201049 78 111 1.7 5.2 0.00 0.00 0.00 45 1012.5
20260508200550 78 99 1.7 5.2 0.00 0.00 0.00 47 1012.6
20260508200059 77 87 0.9 6.1 0.00 0.00 0.00 47 1012.7
20260508195549 77 268 2.6 6.1 0.00 0.00 0.00 46 1012.7
20260508195050 78 84 0.9 4.3 0.00 0.00 0.00 45 1012.7
20260508194557 77 58 1.7 4.3 0.00 0.00 0.00 44 1012.7
20260508194050 77 63 0.9 5.2 0.00 0.00 0.00 45 1012.7
20260508193551 77 298 2.6 5.2 0.00 0.00 0.00 44 1012.8
20260508193101 77 152 1.7 7.8 0.00 0.00 0.00 46 1012.9
20260508192549 77 60 1.7 7.8 0.00 0.00 0.00 42 1013.0
20260508192050 77 352 3.5 7.8 0.00 0.00 0.00 44 1013.1
20260508191553 78 79 1.7 6.1 0.00 0.00 0.00 45 1013.3
20260508191049 77 42 1.7 6.1 0.00 0.00 0.00 44 1013.3
20260508190610 77 80 1.7 7.8 0.00 0.00 0.00 48 1013.3
20260508190057 77 257 0.9 7.8 0.00 0.00 0.00 47 1013.3
20260508185553 76 18 1.7 7.8 0.00 0.00 0.00 45 1013.5
20260508185050 77 72 0.9 7.0 0.00 0.00 0.00 51 1013.6
20260508184609 76 47 1.7 7.0 0.00 0.00 0.00 47 1013.7
20260508184049 76 134 1.7 6.1 0.00 0.00 0.00 49 1013.9
20260508183549 76 295 1.7 7.8 0.00 0.00 0.00 45 1014.1
20260508183102 76 106 2.6 7.8 0.00 0.00 0.00 48 1014.4
20260508182549 76 260 0.9 8.7 0.00 0.00 0.00 48 1014.4
20260508182050 75 60 1.7 8.7 0.00 0.00 0.00 48 1014.5
20260508181552 75 86 0.9 5.2 0.00 0.00 0.00 44 1014.5
20260508181049 75 84 0.9 5.2 0.00 0.00 0.00 44 1014.8
20260508180553 75 316 2.6 6.1 0.00 0.00 0.00 44 1014.6
20260508180051 76 0 2.6 6.1 0.00 0.00 0.00 45 1014.6
20260508175549 76 25 1.7 5.2 0.00 0.00 0.00 47 1014.7
20260508175050 76 68 1.7 5.2 0.00 0.00 0.00 51 1014.9
20260508174604 76 13 1.7 7.0 0.00 0.00 0.00 49 1014.9
20260508174049 76 86 2.6 7.0 0.00 0.00 0.00 47 1014.9
20260508173550 76 105 1.7 4.3 0.00 0.00 0.00 48 1015.1
20260508173056 76 53 0.9 4.3 0.00 0.00 0.00 47 1015.1
20260508172553 76 79 0.9 3.5 0.00 0.00 0.00 48 1015.3
20260508172050 75 84 0.0 4.3 0.00 0.00 0.00 48 1015.4
20260508171557 75 273 1.7 4.3 0.00 0.00 0.00 47 1015.5
20260508171056 75 309 1.7 5.2 0.00 0.00 0.00 51 1015.6
20260508170556 74 78 0.9 5.2 0.00 0.00 0.00 50 1015.7
20260508170056 75 317 0.9 6.1 0.00 0.00 0.00 47 1015.8
20260508165549 74 114 0.9 6.1 0.00 0.00 0.00 50 1015.8
20260508165049 74 104 1.7 6.1 0.00 0.00 0.00 50 1016.0
20260508164605 74 89 1.7 6.1 0.00 0.00 0.00 54 1015.9
20260508164049 74 75 0.9 7.0 0.00 0.00 0.00 48 1016.0
20260508163549 74 82 2.6 7.0 0.00 0.00 0.00 50 1016.2
20260508163115 74 136 0.9 7.0 0.00 0.00 0.00 53 1016.3
20260508162550 73 192 1.7 7.0 0.00 0.00 0.00 50 1016.4
20260508162050 74 293 2.6 7.0 0.00 0.00 0.00 47 1016.4
20260508161557 74 49 1.7 5.2 0.00 0.00 0.00 50 1016.5
20260508161050 73 74 0.9 5.2 0.00 0.00 0.00 49 1016.5
20260508160549 73 285 0.9 5.2 0.00 0.00 0.00 49 1016.5
20260508160052 73 43 2.6 5.2 0.00 0.00 0.00 47 1016.6
20260508155551 73 307 0.9 4.3 0.00 0.00 0.00 48 1016.5
20260508155054 72 43 1.7 4.3 0.00 0.00 0.00 49 1016.5
20260508154600 73 86 0.9 4.3 0.00 0.00 0.00 51 1016.7
20260508154050 72 0 1.7 5.2 0.00 0.00 0.00 50 1016.7
20260508153550 71 279 0.9 5.2 0.00 0.00 0.00 53 1016.8
20260508153058 71 76 2.6 5.2 0.00 0.00 0.00 53 1017.0
20260508152551 71 79 1.7 5.2 0.00 0.00 0.00 54 1017.1
20260508152050 71 268 1.7 5.2 0.00 0.00 0.00 53 1017.1
20260508151552 71 87 1.7 6.1 0.00 0.00 0.00 57 1017.1
20260508151050 70 49 1.7 6.1 0.00 0.00 0.00 54 1017.3
20260508150549 70 91 1.7 4.3 0.00 0.00 0.00 56 1017.4
20260508150056 70 25 0.9 4.3 0.00 0.00 0.00 58 1017.3
20260508145550 69 159 0.9 4.3 0.00 0.00 0.00 59 1017.3
20260508145049 69 11 0.9 6.1 0.00 0.00 0.00 61 1017.3
20260508144610 69 74 2.6 6.1 0.00 0.00 0.00 61 1017.4
20260508144050 69 301 1.7 4.3 0.00 0.00 0.00 60 1017.4
20260508143552 68 128 1.7 5.2 0.00 0.00 0.00 62 1017.5
20260508143056 68 41 1.7 5.2 0.00 0.00 0.00 65 1017.6
20260508142552 68 103 1.7 5.2 0.00 0.00 0.00 63 1017.6
20260508142055 68 82 0.9 3.5 0.00 0.00 0.00 62 1017.6
20260508141552 67 260 0.9 4.3 0.00 0.00 0.00 62 1017.6
20260508141050 67 89 0.9 4.3 0.00 0.00 0.00 68 1017.6
20260508140550 67 243 0.9 2.6 0.00 0.00 0.00 67 1017.6
20260508140053 66 84 0.0 2.6 0.00 0.00 0.00 68 1017.5
20260508135550 66 91 0.0 2.6 0.00 0.00 0.00 70 1017.5
20260508135052 65 39 0.9 2.6 0.00 0.00 0.00 72 1017.6